SCP
0 0 0 0 0 0 0 0 0 0 -0 -0 -0 -0 -0 -0 -0 -0 -0 0 0 -0 -0 -0 -0 0 0 0 0 0 0 0 0 0 0 0 0 0 0 0 0 0 0 0 0 0 0
0 0 0 0 0 0 0 0 0 0 0 -0 -0 -0 -0 -0 -0 -0 -0 -0 -0 -0 -0 -0 -0 0 0 0 0 0 0 0 0 0 0 0 0 0 0 0 0 0 0 0 0 0 0
0 0 0 0 0 0 0 0 0 0 0 0 -0 -0 -0 -0 -0 -0 0 0 -0 -0 -0 -0 -0 -0 -0 0 0 0 0 -0 -0 0 0 0 0 0 0 0 0 0 0 0 0 0 0
0 0 0 0 0 0 0 0 0 0 0 0 0 0 0 -0 0 0 0 0 -0 -0 0 -0 -0 -0 -0 0 0 0 0 -0 0 0 0 0 0 0 0 0 0 0 0 0 0 0 0
0 0 0 0 0 0 0 0 0 0 0 0 0 -0 0 -0 0 0 0 0 -0 0 0 0 0 -0 -0 0 0 0 0 0 0 0 0 0 0 0 0 0 0 0 0 0 0 0 0
0 0 0 0 0 0 0 0 0 0 0 0 0 0 -0 -0 -0 -0 0 -0 0 0 0 0 -0 -0 0 0 0 0 0 -0 0 0 0 0 0 0 0 0 0 0 0 0 0 0 0
0 0 0 0 0 0 0 0 0 0 0 0 0 0 -0 -0 -0 -0 0 0 0 0 0 -0 0 -0 0 0 0 0 0 0 0 0 0 0 0 0 0 0 0 0 0 0 0 0 0
0 0 0 0 0 0 0 0 0 0 0 0 -0 -0 -0 -0 -0 -0 -0 0 0 0 -0 -0 0 -0 -0 0 0 0 0 0 0 0 0 0 0 0 0 0 0 0 0 0 0 0 0
0 0 0 0 0 0 0 0 0 0 0 -0 -0 -0 -0 -0 -0 -0 0 0 0 0 0 0 0 0 0 0 -0 0 0 0 0 0 0 0 0 0 0 0 0 0 0 0 0 0 0
0 0 0 0 0 0 0 0 0 0 -0 -0 -0 -0 -0 -0 -0 0 0 0 0 0 0 0 0 0 0 0 0 -0 0 -0 -0 0 -0 0 0 0 0 0 0 0 0 0 0 0 0
0 0 0 0 0 0 0 0 0 -0 -0 -0 -0 -0 -0 0 0 0 0 0 0 0 0 0 0 0 0 0 0 0 0 -0 -0 0 0 0 0 0 0 0 0 0 0 0 0 0 0
0 0 0 0 0 0 0 0 -0 -0 -0 -0 -0 -0 -0 0 0 0 0 0 0 0 0 0 0 0 0 0 0 0 0 0 0 0 0 0 0 0 0 0 0 0 0 0 0 0 0
0 0 0 0 0 0 0 0 -0 -0 -0 -0 -0 -0 0 0 0 0 0 0 0 0 0 0 0 0 0 0 0 0 0 0 0 0 0 0 0 0 0 0 0 0 0 0 0 0 0
0 0 0 0 0 0 0 0 -0 -0 -0 -0 -0 -0 0 0 0 0 0 0 0 0 0 0 0 0 0 0 0 0 0 0 0 -0 0 0 0 0 0 0 0 0 0 0 0 0 0
0 0 0 0 0 0 0 0 -0 -0 -0 -0 -0 0 0 0 0 0 0 0 0 0 0 0 0 0 0 0 0 0 0 0 0 0 0 0 0 0 0 0 0 0 0 0 0 0 0
0 0 0 0 0 0 0 0 -0 -0 -0 -0 0 -0 0 0 -0 0 0 0 0 0 0 0 0 0 0 0 0 0 0 0 0 0 0 0 0 0 0 0 0 0 0 0 0 0 0
0 0 0 0 0 0 0 0 0 -0 -0 -0 -0 -0 0 0 -0 0 0 0 0 0 0 0 0 0 0 0 0 0 0 0 0 0 0 0 0 0 0 0 0 0 0 0 0 0 0
0 0 0 0 0 0 0 0 0 0 0 -0 -0 0 0 -0 0 0 0 0 0 0 0 0 0 0 0 0 0 0 0 0 0 0 0 0 0 0 0 0 0 0 0 0 0 0 0
0 0 0 0 0 0 0 0 0 0 0 -0 -0 0 0 0 0 0 0 0 0 0 0 0 0 0 0 0 0 0 0 0 0 0 0 0 0 0 0 0 0 0 0 0 0 0 0
0 0 0 0 0 0 0 0 0 0 -0 -0 -0 0 0 0 0 0 0 0 0 0 0 0 0 0 0 0 0 0 0 0 0 0 0 0 0 0 0 0 0 0 0 0 0 0 0
0 0 0 0 0 0 0 0 0 0 -0 -0 0 0 0 0 0 0 0 0 0 0 0 0 0 0 0 0 0 0 0 0 0 0 0 0 0 0 0 0 0 0 0 0 0 0 0
0 0 0 0 0 0 0 0 0 0 -0 0 0 0 0 0 0 0 0 0 0 0 0 0 0 0 0 0 0 0 0 0 0 0 0 0 0 0 0 0 0 0 0 0 0 0 0
0 0 0 0 0 0 0 0 0 0 0 0 0 0 0 0 0 0 0 0 0 0 0 0 0 0 0 0 0 0 0 0 0 0 0 0 0 0 0 0 0 0 0 0 0 0 0
0 0 0 0 0 0 0 0 0 0 0 0 0 0 0 0 0 0 0 0 0 0 0 0 0 0 0 0 0 0 0 0 0 0 0 0 0 0 0 0 0 0 0 0 0 0 0
0 0 0 0 0 0 0 0 0 0 0 0 0 0 0 0 0 0 0 0 0 0 0 0 0 0 0 0 0 0 0 -0 -0 -0 0 0 0 0 0 0 0 0 0 0 0 0 0
0 0 0 0 0 0 0 0 0 0 0 0 0 0 0 0 0 0 0 0 0 0 0 0 -0 0 0 0 0 0 -0 0 0 0 0 0 0 0 0 0 0 0 0 0 0 0 0
0 0 0 0 0 0 0 0 0 0 0 0 0 0 0 0 0 0 0 0 -0 0 0 0 0 0 0 0 0 0 -0 0 -0 0 0 0 0 0 0 0 0 0 0 0 0 0 0
0 0 0 0 0 0 0 0 0 0 0 0 0 0 0 0 0 0 0 0 0 0 0 0 0 0 0 0 0 0 0 0 0 -0 0 0 0 0 0 0 0 0 0 0 0 0 0
0 0 0 0 0 0 0 0 0 0 0 0 0 0 0 0 0 0 -0 -0 -0 -0 0 0 0 0 0 0 0 0 0 0 0 -0 -0 0 0 0 0 0 0 0 0 0 0 0 0
Wind_Speed_500mb
37 37 37 37 38 38 39 40 42 43 45 45 45 45 46 46 45 37 28 21 20 16 10 12 15 16 13 21 39 14 15 25 28 27 33 33 36 40 40 44 44 46 36 41 28 23 32
36 36 38 39 39 40 42 43 45 46 47 48 49 48 48 46 44 37 24 16 18 14 8 9 14 16 16 32 7 9 16 27 24 27 29 34 29 36 43 47 37 34 42 41 32 31 35
38 38 39 39 40 43 45 46 46 47 48 49 50 50 49 48 43 30 19 17 18 12 7 7 12 15 23 31 12 18 28 26 23 24 22 27 25 22 29 35 38 42 30 34 33 36 24
38 37 36 38 41 43 46 48 51 52 52 52 52 51 50 47 37 22 19 19 17 10 10 9 11 13 26 15 24 23 31 28 23 23 20 15 21 29 32 27 14 28 35 37 42 35 35
39 39 41 42 43 46 48 51 52 54 54 53 53 51 48 46 28 22 20 20 17 15 12 11 11 17 30 18 31 28 33 31 26 22 22 16 22 30 29 27 29 32 36 48 43 43 31
39 40 41 43 45 47 48 50 52 54 55 54 54 51 46 42 25 21 21 19 16 12 9 10 18 16 26 19 23 33 33 33 31 25 26 28 25 25 27 32 33 35 40 41 43 37 35
40 42 45 46 46 48 50 53 55 57 58 57 55 52 44 37 23 20 20 24 8 11 24 27 11 24 3 11 16 30 35 33 31 30 32 38 28 33 41 40 41 43 39 42 40 35 38
42 43 44 46 48 51 53 55 57 60 60 59 57 53 42 34 21 21 20 12 11 15 27 32 35 36 35 17 17 31 39 41 38 34 36 33 32 37 37 37 40 44 42 41 34 34 16
42 44 45 47 51 53 55 58 59 60 63 62 59 55 45 29 13 19 5 20 17 16 18 21 15 18 14 27 41 33 41 49 34 37 39 37 27 13 32 20 31 34 39 40 35 28 20
43 44 47 49 51 55 58 61 62 63 65 63 62 54 46 25 6 15 2 29 21 9 12 17 21 14 17 12 22 42 37 48 42 39 38 33 37 18 27 35 35 37 38 34 38 35 29
43 44 45 48 53 57 60 62 63 65 66 64 61 53 40 26 14 16 25 29 18 8 11 6 16 4 9 22 8 28 37 45 42 34 25 35 33 25 32 34 30 32 30 34 37 29 36
44 45 47 50 55 58 61 63 64 65 68 69 60 50 37 17 18 23 33 28 12 15 16 13 1 6 19 24 18 5 34 36 33 39 37 35 31 23 30 35 26 16 19 24 26 30 33
43 44 46 50 54 59 62 63 65 67 69 67 58 46 21 22 27 35 29 16 15 17 8 7 5 8 17 20 16 17 27 35 33 28 40 40 45 33 30 25 19 26 24 20 25 27 37
41 43 46 50 54 57 64 68 70 73 76 69 54 36 15 17 34 32 21 20 22 21 20 12 15 22 30 15 23 19 29 30 44 47 33 36 39 49 37 42 35 40 35 23 32 28 34
40 42 46 50 53 59 63 68 74 78 77 74 53 17 8 30 39 26 23 18 15 20 19 22 30 34 36 32 21 21 34 38 36 32 49 34 45 28 43 39 37 44 29 40 42 37 27
39 42 45 49 54 58 62 66 73 77 73 66 45 14 10 49 36 18 19 29 16 13 23 22 28 27 30 31 23 33 33 15 20 4 8 22 36 37 28 24 35 37 34 26 18 32 40
39 41 45 49 53 57 61 64 70 74 71 59 30 17 26 40 21 20 16 18 17 24 23 18 29 35 36 35 36 32 36 15 12 14 16 25 29 38 45 30 39 32 31 29 25 29 32
38 40 44 49 52 55 58 62 65 68 70 52 32 9 44 40 13 10 14 15 20 24 30 23 20 28 29 33 39 34 37 23 20 18 22 17 20 36 53 50 37 39 47 45 26 42 30
37 40 44 47 49 51 54 58 59 60 58 40 27 12 35 37 12 19 24 28 22 22 23 26 25 33 24 29 23 23 32 5 13 16 22 26 13 28 40 37 41 31 40 35 33 30 45
37 39 41 45 46 47 50 55 56 55 42 28 22 11 20 16 14 23 23 21 23 25 22 20 30 35 27 27 29 30 30 22 9 11 16 17 23 32 31 41 36 48 42 46 44 34 40
38 40 41 42 42 43 43 48 51 47 42 34 19 7 10 15 19 23 19 20 19 26 21 26 26 31 28 29 33 35 40 39 29 20 13 13 37 41 47 52 53 49 47 30 31 37 45
40 41 41 40 40 38 38 39 44 43 24 20 20 16 27 28 17 18 7 17 25 23 29 31 31 30 30 29 35 36 44 41 37 38 37 31 38 41 54 51 50 53 50 46 43 52 44
40 40 40 38 37 35 34 32 36 38 31 16 17 11 20 14 11 14 14 21 27 29 27 29 36 33 36 38 39 41 45 45 44 37 36 36 31 32 41 45 51 50 59 61 60 55 45
40 40 40 39 36 34 30 27 27 33 21 13 13 16 11 14 17 18 30 24 26 26 32 40 39 35 46 45 48 55 59 60 61 54 54 42 41 34 35 41 46 31 43 51 51 53 52
41 42 40 39 36 33 30 24 19 26 27 12 19 13 8 14 31 33 21 27 39 37 40 35 39 38 30 37 28 31 33 39 48 49 48 44 39 33 34 37 40 47 48 41 38 42 35
42 42 42 40 37 34 30 26 19 19 25 18 16 22 13 18 10 38 40 33 25 24 30 35 26 34 35 23 19 28 30 39 23 27 25 28 36 30 34 36 44 47 55 68 50 43 43
42 43 43 41 38 34 32 28 22 18 23 21 24 26 22 25 46 26 28 32 47 33 21 47 38 25 28 16 19 27 32 37 29 35 35 28 25 29 27 30 35 46 41 27 41 34 29
44 44 43 42 40 35 33 29 27 20 25 24 27 28 34 35 62 64 55 48 45 39 23 33 28 22 18 13 16 23 19 23 25 33 33 30 23 28 29 20 18 32 43 45 32 27 36
47 45 44 43 42 37 34 31 33 27 28 30 31 26 33 43 62 75 76 74 75 79 70 58 39 50 15 8 10 9 19 19 31 30 34 16 26 25 33 17 35 50 49 44 11 26 32
Wind_Direction_500mb
22 20 19 17 16 13 10 6 2 360 358 354 352 350 346 340 336 332 325 324 327 319 280 234 212 223 224 232 253 216 219 212 198 195 210 212 220 223 231 240 234 237 243 244 237 257 236
22 20 19 17 12 9 6 4 2 358 354 351 350 348 346 341 336 331 326 323 326 317 281 232 211 209 226 249 192 210 180 176 185 198 212 214 220 228 241 248 241 237 243 253 243 233 230
21 20 18 15 11 8 5 2 359 356 354 351 348 347 347 343 339 335 331 322 319 284 273 236 216 218 245 239 235 221 190 190 193 203 207 215 236 234 238 258 250 247 268 238 245 231 212
20 18 16 13 11 7 4 1 359 356 353 351 348 348 346 345 343 343 336 324 319 275 264 241 230 229 255 232 225 204 197 199 204 206 222 209 223 234 244 244 260 240 240 246 221 220 213
18 15 14 13 10 8 5 2 359 356 354 351 348 349 347 345 349 345 341 331 319 293 262 240 242 225 267 220 210 204 199 206 204 211 215 215 227 233 214 245 229 218 233 229 240 197 208
18 15 14 13 11 9 6 3 359 356 353 351 346 347 348 344 348 352 346 342 318 299 249 247 246 246 236 241 204 208 207 210 210 213 213 220 222 222 229 219 225 221 224 245 223 191 208
17 15 13 13 12 10 7 3 360 357 354 351 345 344 347 343 346 355 358 309 271 225 224 262 275 254 206 205 211 211 203 207 210 218 221 203 224 221 227 223 244 261 237 228 251 216 205
16 16 16 15 11 11 9 5 0 357 354 352 346 344 345 341 331 7 14 22 11 316 296 270 249 254 249 231 247 217 201 207 207 224 217 237 227 249 235 236 227 244 257 257 236 224 222
18 17 16 15 13 10 7 5 2 357 355 353 348 344 343 346 27 12 21 4 329 307 266 285 222 230 216 222 231 221 202 211 217 228 238 232 231 203 251 228 243 236 239 239 246 223 223
17 17 16 14 10 8 5 4 2 358 355 353 348 346 344 350 342 335 360 341 330 284 271 147 191 179 205 226 227 225 207 220 228 239 235 239 243 217 246 235 219 239 223 244 248 230 224
15 14 13 11 8 6 4 4 2 359 355 351 348 345 349 347 333 4 325 329 315 290 277 92 125 99 220 236 32 208 214 222 236 223 254 235 230 228 237 232 231 242 262 212 239 237 242
12 10 9 9 6 4 3 2 1 359 355 352 348 340 343 350 337 313 326 319 301 237 239 131 233 230 247 200 223 134 208 227 231 252 240 250 267 238 240 235 237 250 239 249 244 240 234
7 5 5 6 5 1 1 360 0 358 354 352 346 339 346 23 334 325 320 302 249 245 106 126 290 285 282 266 238 229 196 211 222 223 239 231 241 223 240 243 199 232 227 229 224 226 235
4 0 1 3 1 1 358 357 358 357 355 354 349 343 354 345 333 329 317 263 259 291 310 85 294 286 275 284 241 221 246 232 215 245 252 232 230 223 203 229 227 203 228 218 233 236 239
359 359 358 359 359 360 359 356 356 357 357 351 351 360 8 333 331 322 289 258 291 9 10 335 314 275 262 247 245 228 243 245 244 228 236 257 255 266 215 201 229 244 209 246 263 274 274
355 355 355 355 358 359 359 358 356 356 358 354 354 354 338 339 325 300 264 264 329 37 342 311 290 302 293 289 215 267 249 283 247 254 316 258 269 267 230 226 232 239 264 226 233 252 251
353 352 352 354 357 358 359 0 358 356 359 357 359 311 345 339 328 250 262 14 342 350 345 326 311 304 300 296 294 284 285 75 356 287 267 269 256 249 261 202 235 221 240 248 252 227 243
349 348 349 353 356 357 358 1 2 360 359 10 354 338 343 346 299 1 355 351 334 330 329 312 297 289 290 293 286 287 274 313 10 322 284 288 266 244 238 252 237 234 253 226 231 240 250
344 345 349 352 355 355 356 1 3 6 4 6 348 330 350 9 19 350 341 325 319 343 343 321 311 310 321 303 292 268 267 111 20 5 15 352 261 257 250 248 253 252 236 247 259 231 233
342 343 347 351 353 353 354 359 4 8 17 17 341 343 354 10 57 344 348 322 331 334 321 351 315 297 289 294 295 277 267 261 152 279 47 325 268 273 260 253 246 240 236 245 239 245 229
340 342 344 349 350 350 354 357 2 15 28 15 9 61 357 321 354 334 326 308 329 327 332 327 321 312 316 314 300 292 300 300 277 238 265 268 275 276 270 275 281 283 257 239 269 267 238
336 338 342 345 347 347 351 357 358 9 39 24 359 349 333 293 316 307 273 356 329 324 323 312 300 313 311 295 296 297 301 303 290 304 302 290 271 273 272 268 264 268 268 272 257 244 251
331 333 336 340 343 343 346 352 357 2 31 7 6 347 338 306 319 311 4 322 316 313 304 298 299 302 298 303 321 288 289 281 276 280 280 275 277 277 276 272 265 257 253 254 256 260 259
325 327 331 334 338 337 339 343 353 353 15 352 336 329 311 304 311 322 317 302 294 304 301 294 289 290 291 291 290 283 273 260 256 256 251 254 259 265 264 271 263 260 256 254 263 263 266
320 323 324 328 330 330 329 329 336 338 347 334 318 303 289 292 309 296 318 314 307 294 278 294 285 287 298 283 284 290 281 268 256 247 240 228 240 250 255 258 264 261 260 258 254 259 257
315 316 318 321 324 325 320 318 314 318 322 324 297 284 279 292 232 334 304 305 293 296 294 292 310 291 279 279 281 267 273 287 280 295 237 239 235 240 245 247 251 249 255 261 269 260 257
310 311 313 315 316 318 314 312 300 301 309 311 292 284 275 270 281 281 289 292 299 296 285 283 280 293 288 261 255 265 272 278 268 265 269 268 262 243 251 250 253 258 269 281 231 248 260
308 307 307 310 308 310 309 307 300 289 295 297 292 273 272 271 281 278 277 273 278 266 260 269 310 262 247 241 255 271 268 281 279 267 263 258 260 263 263 265 263 246 262 259 282 296 287
303 302 303 304 304 304 304 299 302 283 289 293 288 288 273 267 271 284 281 274 265 260 262 261 251 273 268 268 261 283 275 275 274 273 272 271 271 270 260 262 301 295 289 303 261 296 280
Wind_Speed_850mb
37 37 37 37 38 38 39 40 42 43 45 45 45 45 46 46 45 37 28 21 20 16 10 12 15 16 13 21 39 14 15 25 28 27 33 33 36 40 40 44 44 46 36 41 28 23 32
36 36 38 39 39 40 42 43 45 46 47 48 49 48 48 46 44 37 24 16 18 14 8 9 14 16 16 32 7 9 16 27 24 27 29 34 29 36 43 47 37 34 42 41 32 31 35
38 38 39 39 40 43 45 46 46 47 48 49 50 50 49 48 43 30 19 17 18 12 7 7 12 15 23 31 12 18 28 26 23 24 22 27 25 22 29 35 38 42 30 34 33 36 24
38 37 36 38 41 43 46 48 51 52 52 52 52 51 50 47 37 22 19 19 17 10 10 9 11 13 26 15 24 23 31 28 23 23 20 15 21 29 32 27 14 28 35 37 42 35 35
39 39 41 42 43 46 48 51 52 54 54 53 53 51 48 46 28 22 20 20 17 15 12 11 11 17 30 18 31 28 33 31 26 22 22 16 22 30 29 27 29 32 36 48 43 43 31
39 40 41 43 45 47 48 50 52 54 55 54 54 51 46 42 25 21 21 19 16 12 9 10 18 16 26 19 23 33 33 33 31 25 26 28 25 25 27 32 33 35 40 41 43 37 35
40 42 45 46 46 48 50 53 55 57 58 57 55 52 44 37 23 20 20 24 8 11 24 27 11 24 3 11 16 30 35 33 31 30 32 38 28 33 41 40 41 43 39 42 40 35 38
42 43 44 46 48 51 53 55 57 60 60 59 57 53 42 34 21 21 20 12 11 15 27 32 35 36 35 17 17 31 39 41 38 34 36 33 32 37 37 37 40 44 42 41 34 34 16
42 44 45 47 51 53 55 58 59 60 63 62 59 55 45 29 13 19 5 20 17 16 18 21 15 18 14 27 41 33 41 49 34 37 39 37 27 13 32 20 31 34 39 40 35 28 20
43 44 47 49 51 55 58 61 62 63 65 63 62 54 46 25 6 15 2 29 21 9 12 17 21 14 17 12 22 42 37 48 42 39 38 33 37 18 27 35 35 37 38 34 38 35 29
43 44 45 48 53 57 60 62 63 65 66 64 61 53 40 26 14 16 25 29 18 8 11 6 16 4 9 22 8 28 37 45 42 34 25 35 33 25 32 34 30 32 30 34 37 29 36
44 45 47 50 55 58 61 63 64 65 68 69 60 50 37 17 18 23 33 28 12 15 16 13 1 6 19 24 18 5 34 36 33 39 37 35 31 23 30 35 26 16 19 24 26 30 33
43 44 46 50 54 59 62 63 65 67 69 67 58 46 21 22 27 35 29 16 15 17 8 7 5 8 17 20 16 17 27 35 33 28 40 40 45 33 30 25 19 26 24 20 25 27 37
41 43 46 50 54 57 64 68 70 73 76 69 54 36 15 17 34 32 21 20 22 21 20 12 15 22 30 15 23 19 29 30 44 47 33 36 39 49 37 42 35 40 35 23 32 28 34
40 42 46 50 53 59 63 68 74 78 77 74 53 17 8 30 39 26 23 18 15 20 19 22 30 34 36 32 21 21 34 38 36 32 49 34 45 28 43 39 37 44 29 40 42 37 27
39 42 45 49 54 58 62 66 73 77 73 66 45 14 10 49 36 18 19 29 16 13 23 22 28 27 30 31 23 33 33 15 20 4 8 22 36 37 28 24 35 37 34 26 18 32 40
39 41 45 49 53 57 61 64 70 74 71 59 30 17 26 40 21 20 16 18 17 24 23 18 29 35 36 35 36 32 36 15 12 14 16 25 29 38 45 30 39 32 31 29 25 29 32
38 40 44 49 52 55 58 62 65 68 70 52 32 9 44 40 13 10 14 15 20 24 30 23 20 28 29 33 39 34 37 23 20 18 22 17 20 36 53 50 37 39 47 45 26 42 30
37 40 44 47 49 51 54 58 59 60 58 40 27 12 35 37 12 19 24 28 22 22 23 26 25 33 24 29 23 23 32 5 13 16 22 26 13 28 40 37 41 31 40 35 33 30 45
37 39 41 45 46 47 50 55 56 55 42 28 22 11 20 16 14 23 23 21 23 25 22 20 30 35 27 27 29 30 30 22 9 11 16 17 23 32 31 41 36 48 42 46 44 34 40
38 40 41 42 42 43 43 48 51 47 42 34 19 7 10 15 19 23 19 20 19 26 21 26 26 31 28 29 33 35 40 39 29 20 13 13 37 41 47 52 53 49 47 30 31 37 45
40 41 41 40 40 38 38 39 44 43 24 20 20 16 27 28 17 18 7 17 25 23 29 31 31 30 30 29 35 36 44 41 37 38 37 31 38 41 54 51 50 53 50 46 43 52 44
40 40 40 38 37 35 34 32 36 38 31 16 17 11 20 14 11 14 14 21 27 29 27 29 36 33 36 38 39 41 45 45 44 37 36 36 31 32 41 45 51 50 59 61 60 55 45
40 40 40 39 36 34 30 27 27 33 21 13 13 16 11 14 17 18 30 24 26 26 32 40 39 35 46 45 48 55 59 60 61 54 54 42 41 34 35 41 46 31 43 51 51 53 52
41 42 40 39 36 33 30 24 19 26 27 12 19 13 8 14 31 33 21 27 39 37 40 35 39 38 30 37 28 31 33 39 48 49 48 44 39 33 34 37 40 47 48 41 38 42 35
42 42 42 40 37 34 30 26 19 19 25 18 16 22 13 18 10 38 40 33 25 24 30 35 26 34 35 23 19 28 30 39 23 27 25 28 36 30 34 36 44 47 55 68 50 43 43
42 43 43 41 38 34 32 28 22 18 23 21 24 26 22 25 46 26 28 32 47 33 21 47 38 25 28 16 19 27 32 37 29 35 35 28 25 29 27 30 35 46 41 27 41 34 29
44 44 43 42 40 35 33 29 27 20 25 24 27 28 34 35 62 64 55 48 45 39 23 33 28 22 18 13 16 23 19 23 25 33 33 30 23 28 29 20 18 32 43 45 32 27 36
47 45 44 43 42 37 34 31 33 27 28 30 31 26 33 43 62 75 76 74 75 79 70 58 39 50 15 8 10 9 19 19 31 30 34 16 26 25 33 17 35 50 49 44 11 26 32
Wind_Direction_850mb
22 20 19 17 16 13 10 6 2 360 358 354 352 350 346 340 336 332 325 324 327 319 280 234 212 223 224 232 253 216 219 212 198 195 210 212 220 223 231 240 234 237 243 244 237 257 236
22 20 19 17 12 9 6 4 2 358 354 351 350 348 346 341 336 331 326 323 326 317 281 232 211 209 226 249 192 210 180 176 185 198 212 214 220 228 241 248 241 237 243 253 243 233 230
21 20 18 15 11 8 5 2 359 356 354 351 348 347 347 343 339 335 331 322 319 284 273 236 216 218 245 239 235 221 190 190 193 203 207 215 236 234 238 258 250 247 268 238 245 231 212
20 18 16 13 11 7 4 1 359 356 353 351 348 348 346 345 343 343 336 324 319 275 264 241 230 229 255 232 225 204 197 199 204 206 222 209 223 234 244 244 260 240 240 246 221 220 213
18 15 14 13 10 8 5 2 359 356 354 351 348 349 347 345 349 345 341 331 319 293 262 240 242 225 267 220 210 204 199 206 204 211 215 215 227 233 214 245 229 218 233 229 240 197 208
18 15 14 13 11 9 6 3 359 356 353 351 346 347 348 344 348 352 346 342 318 299 249 247 246 246 236 241 204 208 207 210 210 213 213 220 222 222 229 219 225 221 224 245 223 191 208
17 15 13 13 12 10 7 3 360 357 354 351 345 344 347 343 346 355 358 309 271 225 224 262 275 254 206 205 211 211 203 207 210 218 221 203 224 221 227 223 244 261 237 228 251 216 205
16 16 16 15 11 11 9 5 0 357 354 352 346 344 345 341 331 7 14 22 11 316 296 270 249 254 249 231 247 217 201 207 207 224 217 237 227 249 235 236 227 244 257 257 236 224 222
18 17 16 15 13 10 7 5 2 357 355 353 348 344 343 346 27 12 21 4 329 307 266 285 222 230 216 222 231 221 202 211 217 228 238 232 231 203 251 228 243 236 239 239 246 223 223
17 17 16 14 10 8 5 4 2 358 355 353 348 346 344 350 342 335 360 341 330 284 271 147 191 179 205 226 227 225 207 220 228 239 235 239 243 217 246 235 219 239 223 244 248 230 224
15 14 13 11 8 6 4 4 2 359 355 351 348 345 349 347 333 4 325 329 315 290 277 92 125 99 220 236 32 208 214 222 236 223 254 235 230 228 237 232 231 242 262 212 239 237 242
12 10 9 9 6 4 3 2 1 359 355 352 348 340 343 350 337 313 326 319 301 237 239 131 233 230 247 200 223 134 208 227 231 252 240 250 267 238 240 235 237 250 239 249 244 240 234
7 5 5 6 5 1 1 360 0 358 354 352 346 339 346 23 334 325 320 302 249 245 106 126 290 285 282 266 238 229 196 211 222 223 239 231 241 223 240 243 199 232 227 229 224 226 235
4 0 1 3 1 1 358 357 358 357 355 354 349 343 354 345 333 329 317 263 259 291 310 85 294 286 275 284 241 221 246 232 215 245 252 232 230 223 203 229 227 203 228 218 233 236 239
359 359 358 359 359 360 359 356 356 357 357 351 351 360 8 333 331 322 289 258 291 9 10 335 314 275 262 247 245 228 243 245 244 228 236 257 255 266 215 201 229 244 209 246 263 274 274
355 355 355 355 358 359 359 358 356 356 358 354 354 354 338 339 325 300 264 264 329 37 342 311 290 302 293 289 215 267 249 283 247 254 316 258 269 267 230 226 232 239 264 226 233 252 251
353 352 352 354 357 358 359 0 358 356 359 357 359 311 345 339 328 250 262 14 342 350 345 326 311 304 300 296 294 284 285 75 356 287 267 269 256 249 261 202 235 221 240 248 252 227 243
349 348 349 353 356 357 358 1 2 360 359 10 354 338 343 346 299 1 355 351 334 330 329 312 297 289 290 293 286 287 274 313 10 322 284 288 266 244 238 252 237 234 253 226 231 240 250
344 345 349 352 355 355 356 1 3 6 4 6 348 330 350 9 19 350 341 325 319 343 343 321 311 310 321 303 292 268 267 111 20 5 15 352 261 257 250 248 253 252 236 247 259 231 233
342 343 347 351 353 353 354 359 4 8 17 17 341 343 354 10 57 344 348 322 331 334 321 351 315 297 289 294 295 277 267 261 152 279 47 325 268 273 260 253 246 240 236 245 239 245 229
340 342 344 349 350 350 354 357 2 15 28 15 9 61 357 321 354 334 326 308 329 327 332 327 321 312 316 314 300 292 300 300 277 238 265 268 275 276 270 275 281 283 257 239 269 267 238
336 338 342 345 347 347 351 357 358 9 39 24 359 349 333 293 316 307 273 356 329 324 323 312 300 313 311 295 296 297 301 303 290 304 302 290 271 273 272 268 264 268 268 272 257 244 251
331 333 336 340 343 343 346 352 357 2 31 7 6 347 338 306 319 311 4 322 316 313 304 298 299 302 298 303 321 288 289 281 276 280 280 275 277 277 276 272 265 257 253 254 256 260 259
325 327 331 334 338 337 339 343 353 353 15 352 336 329 311 304 311 322 317 302 294 304 301 294 289 290 291 291 290 283 273 260 256 256 251 254 259 265 264 271 263 260 256 254 263 263 266
320 323 324 328 330 330 329 329 336 338 347 334 318 303 289 292 309 296 318 314 307 294 278 294 285 287 298 283 284 290 281 268 256 247 240 228 240 250 255 258 264 261 260 258 254 259 257
315 316 318 321 324 325 320 318 314 318 322 324 297 284 279 292 232 334 304 305 293 296 294 292 310 291 279 279 281 267 273 287 280 295 237 239 235 240 245 247 251 249 255 261 269 260 257
310 311 313 315 316 318 314 312 300 301 309 311 292 284 275 270 281 281 289 292 299 296 285 283 280 293 288 261 255 265 272 278 268 265 269 268 262 243 251 250 253 258 269 281 231 248 260
308 307 307 310 308 310 309 307 300 289 295 297 292 273 272 271 281 278 277 273 278 266 260 269 310 262 247 241 255 271 268 281 279 267 263 258 260 263 263 265 263 246 262 259 282 296 287
303 302 303 304 304 304 304 299 302 283 289 293 288 288 273 267 271 284 281 274 265 260 262 261 251 273 268 268 261 283 275 275 274 273 272 271 271 270 260 262 301 295 289 303 261 296 280